BREEZE-KM R/B, 41336

Orbit data source: Space-Track

BREEZE-KM R/B, 41336 is space debris in SSO originally from a launch on Tue, 16 Feb 2016 UTC launched from the Plesetsk Missile And Space Complex (PKMTR). Debris objects in space refer to the collection of defunct objects orbiting the Earth. Examples of debris include non-operational satellites, rocket bodies, and fragments generated from explosions, collisions, or faulty payload assembly.

Loading next visibility...
Identifier
41336, 2016-011B
Orbit
SSO
Last TLE update
12 hours ago
Origin
Manufacturer
Khrunichev
Mission
Spacecraft
Bus & Motor
BRIZ, S5.92
Mass
2,370 kg wet, 2,370 kg dry
Launch date (UTC)
2016-02-16 (9 years ago)
Launch vehicle
Unknown
Launch site
Plesetsk Missile And Space Complex (PKMTR)
Object type
Payload
Rocket body
Debris
Shape & HBR
Hex Cyl + 1 Rod, 4.1 m
Radar Cross Section
10.190 m², Large (>1 m²)

Expand to show TLE details & history

TLE from 12 hours ago
0 BREEZE-KM R/B
1 41336U 16011B   25190.22294744  .00008249  00000-0  25239-3 0  9994
2 41336  98.6796   2.4596 0156141 172.6125 187.7463 15.22995526515140
Epoch: 2025-07-09T05:21Z
TLE epoch observation values (Epoch: 2025-07-09T05:21:02.658Z)
Latitude
-0.00003°
Longitude
-5.20814°
Altitude
606.287 km
Speed
7.498 km/s
True Right ascension
00h 09m 50s
True Declination
0° 00' 00"
Sunlit
Object was in daylight at epoch
Visualization orbit readout
Latitude
-4.72126°
Longitude
174.64352°
Altitude
396.173 km
Speed
7.73 km/s
Apparent Right ascension
14h 16m 26s
Apparent Declination
-26° 55' 35"
Sunlit
Object is in daylight
Visualization observer readout
Local Sidereal Time
05:22:43
Azimuth
85.939° E
Elevation
-49.525°
Doppler factor
1
Orbital elements
Apogee altitude
601.131 km
Perigee altitude
386.531 km
Semi-major axis
6,871.968 km
Eccentricity
0.01561
Inclination
98.6796°
RAAN
2.4596°
Arg. of periapsis
172.6125°
True anomaly
Unknown
Mean anomaly
187.7463°
Eccentric anomaly
Unknown
Mean motion
3.80997 °/min
Orbital period
94.49 mins
BSTAR
0.00025239
Loading maneuver chart data...
Loading SW <> Apogee altitude chart data...
Loading historical data...
Loading historical data...
Loading historical data...
Loading historical data...
Loading historical data...
Loading historical data...
Loading historical data...
Other satellites on launch #11 in the year 2016 (2016-02-16 UTC)

BREEZE-KM R/B Visibility forecast

Observer location: undefined°, undefined°

Span
Click to sort rows by Start time (UTC) header in descending order
Start Az.
Max El. time (UTC)
Max El. Az.
Max El.
End time (UTC)
End Az.
5 mins2025-07-10 00:50:37.255Z352.208° N2025-07-10 00:52:37.255Z300.305° NW31.302°2025-07-10 00:55:37.255Z218.666° SW
6 mins2025-07-10 11:26:37.255Z162.342° S2025-07-10 11:29:37.255Z49.359° ENE44.789°2025-07-10 11:32:37.255Z348.387° N
|